This demonstration page uses our WeatherBlox Daily Observations layout. Learn more.

Left ArrowRight Arrow

39.92423, -83.80882

Hourly Observations for March 11, 2021

Temp ( °F °C ) Dew Point ( °F °C ) Humidity (%) Winds ( mph kmh ) Pressure ( in mb ) Visibility ( mi km ) Precip ( " mm )
12:56 am 00:56 Clear 60 15.6 39 3.9 46 46 SSW 14 22 30.11 1020 10 16 N/A
1:56 am 01:56 Mostly Cloudy 61 16.1 40 4.4 46 46 SSW 18 30 30.10 1019 10 16 N/A
2:56 am 02:56 Cloudy 62 16.7 41 5 46 46 SSW 20 31 30.09 1019 10 16 N/A
3:56 am 03:56 Cloudy 62 16.7 43 6.1 50 50 SSW 21 33 30.09 1019 10 16 N/A
4:56 am 04:56 Cloudy 62 16.7 44 6.7 52 52 SSW 20 31 30.09 1019 10 16 N/A
5:56 am 05:56 Cloudy 61 16.1 44 6.7 54 54 SW 14 22 30.11 1020 10 16 N/A
6:56 am 06:56 Cloudy 61 16.1 45 7.2 56 56 SSW 15 24 30.11 1020 10 16 N/A
7:56 am 07:56 Cloudy 61 16.1 46 7.8 58 58 SSW 16 26 30.12 1020 10 16 N/A
8:56 am 08:56 Partly Cloudy 64 17.8 48 8.9 56 56 SW 21 33 30.12 1020 10 16 N/A
9:56 am 09:56 Mostly Cloudy 63 17.2 50 10 63 63 SW 21 33 30.13 1020 10 16 N/A
10:56 am 10:56 Partly Cloudy 66 18.9 52 11.1 61 61 SSW 26 43 30.11 1020 10 16 N/A
11:56 am 11:56 Cloudy 63 17.2 52 11.1 68 68 SW 22 35 30.13 1020 10 16 N/A
12:56 pm 12:56 Cloudy with Light Rain 60 15.6 56 13.3 86 86 SW 17 28 30.14 1021 10 16 N/A
1:56 pm 13:56 Cloudy 58 14.4 58 14.4 100 100 SSW 13 20 30.12 1020 10 16 N/A
2:38 pm 14:38 Mostly Cloudy 59 15 59 15 100 100 SSW 16 26 30.10 1019 10 16 N/A
2:56 pm 14:56 Cloudy 59 15 59 15 100 100 SW 16 26 30.11 1020 10 16 N/A
3:20 pm 15:20 Cloudy 59 15 59 15 100 100 SW 16 26 30.10 1019 10 16 N/A
3:31 pm 15:31 Cloudy 59 15 57 14 94 94 SW 16 26 30.10 1019 10 16 N/A
3:56 pm 15:56 Mostly Cloudy 59 15 57 13.9 93 93 SW 15 24 30.10 1019 10 16 N/A
4:31 pm 16:31 Cloudy 61 16 57 14 88 88 SW 13 20 30.10 1019 10 16 N/A
4:56 pm 16:56 Cloudy 59 15 57 13.9 93 93 SSW 10 17 30.11 1020 10 16 N/A
5:56 pm 17:56 Cloudy with Light Rain 57 13.9 57 13.9 100 100 SSW 7 11 30.11 1020 6 10 N/A
6:16 pm 18:16 Cloudy with Rain 57 14 57 14 100 100 SSW 6 9 30.11 1019 5 8 N/A
6:33 pm 18:33 Cloudy with Light Rain 55 13 N/A N/A SSW 6 9 30.11 1020 5 8 N/A
6:56 pm 18:56 Cloudy with Light Rain 55 13 N/A N/A WSW 9 15 30.13 1020 9 14 N/A
7:06 pm 19:06 Cloudy with Rain 55 13 N/A N/A WSW 8 13 30.14 1021 7 11 N/A
7:38 pm 19:38 Cloudy with Rain 55 13 55 13 100 100 W 8 13 30.16 1021 5 8 N/A
7:46 pm 19:46 Cloudy with Rain 55 13 55 13 100 100 W 8 13 30.16 1021 4 6 N/A
7:56 pm 19:56 Cloudy with Rain 56 13.3 56 13.3 100 100 W 8 13 30.16 1021 5 8 N/A
8:07 pm 20:07 Cloudy with Light Rain 55 13 55 13 100 100 W 8 13 30.16 1021 6 10 N/A
8:15 pm 20:15 Cloudy with Light Rain 55 13 55 13 100 100 W 7 11 30.16 1021 6 10 N/A
8:49 pm 20:49 Cloudy with Rain 55 13 55 13 100 100 W 8 13 30.17 1022 8 13 N/A
8:56 pm 20:56 Cloudy with Rain 55 12.8 55 12.8 100 100 W 8 13 30.17 1022 9 14 N/A
9:56 pm 21:56 Mostly Cloudy with Mist and Fog 54 12.2 54 12.2 100 100 WSW 3 6 30.18 1022 6 10 N/A
10:47 pm 22:47 Cloudy 54 12 54 12 100 100 WSW 7 11 30.20 1023 10 16 N/A
10:56 pm 22:56 Cloudy with Light Rain 54 12.2 54 12.2 100 100 SW 9 15 30.20 1023 10 16 N/A
11:56 pm 23:56 Cloudy 53 11.7 53 11.7 100 100 W 6 9 30.22 1023 10 16 N/A

Powered by AerisWeather